Simultaneous Nadir Overpasses (SNOs) Predictions

Prediction of SNOs between GOES-14 and NOAA-20 Satellite Orbit:

Table of predicted SNOs for the next 14.0 days since TLE Epoch: 11/16/2018
Index Date Time (GOES-14) GOES-14 Lat,Lon NOAA-20 Lat,Lon Distance(km) Time Diff (sec)
1 11/17/2018 08:17:13 0.09,-104.15 -0.04,-103.51 72.77 80
2 11/19/2018 20:20:24 -0.08,-104.02 -0.16,-104.27 29.44 80
3 11/20/2018 20:04:19 -0.09,-104.03 0.88, -99.74 488.30 80
4 11/22/2018 08:26:08 0.07,-104.17 0.25,-105.02 97.23 80
5 11/23/2018 08:04:42 0.08,-104.16 -0.73,-100.48 418.69 80
6 11/24/2018 20:26:39 -0.06,-104.00 -0.44,-105.79 202.87 80
7 11/25/2018 20:10:33 -0.07,-104.00 0.53,-101.24 314.27 80
8 11/27/2018 08:32:21 0.04,-104.16 0.59,-106.52 269.27 80
9 11/28/2018 08:10:57 0.06,-104.15 -0.45,-101.99 246.40 80
10 11/29/2018 20:32:52 -0.03,-103.97 -0.78,-107.29 377.92 80




NCC Satellite Simultaneous Nadir Overpasses (SNOs) Prediction Service
